SM4TUV Weather Reports


Display with metric or nautical units.
time (UTC)temp
F
wind
direction
speed
MPH
gust
MPH
rain 1hr
in
rain 24hr
in
rain mn
in
humidity
%
barometer
mb
20260510165029 43 183 4.0 5.0 0.00 0.00 0.00 84 973.2
20260510164128 43 176 4.0 5.0 0.00 0.00 0.00 84 973.2
20260510163229 43 197 3.0 4.0 0.00 0.00 0.00 84 973.3
20260510162329 43 167 3.0 3.0 0.00 0.00 0.00 84 973.5
20260510161429 43 194 3.0 4.0 0.00 0.00 0.00 85 973.6
20260510160529 43 209 2.0 4.0 0.00 0.00 0.00 85 973.8
20260510155629 43 273 2.0 4.0 0.00 0.00 0.00 84 973.9
20260510154728 43 296 2.0 4.0 0.00 0.00 0.00 84 973.9
20260510152929 43 281 3.0 3.0 0.00 0.00 0.00 83 974.2
20260510152028 43 296 3.0 4.0 0.00 0.00 0.00 82 974.4
20260510151129 43 236 6.0 8.0 0.00 0.00 0.00 81 974.4
20260510150229 44 236 6.0 8.0 0.00 0.00 0.00 80 974.6
20260510145329 44 256 6.0 8.0 0.00 0.00 0.00 80 974.8
20260510144429 44 255 6.0 9.0 0.00 0.00 0.00 80 974.9
20260510143529 44 272 8.0 12.0 0.00 0.00 0.00 80 974.9
20260510142631 44 258 6.0 9.0 0.00 0.00 0.00 81 975.1
20260510141729 44 282 6.0 11.0 0.00 0.00 0.00 82 975.3
20260510135929 45 241 6.0 8.0 0.00 0.00 0.00 81 975.3
20260510135028 45 264 5.0 9.0 0.00 0.00 0.00 80 975.4
20260510134129 45 240 7.0 11.0 0.00 0.00 0.00 79 975.5
20260510132329 45 256 7.0 10.0 0.00 0.00 0.00 78 975.7
20260510131429 46 243 6.0 8.0 0.00 0.00 0.00 77 975.6
20260510130529 46 223 6.0 8.0 0.00 0.00 0.00 75 975.7
20260510125629 46 238 6.0 10.0 0.00 0.00 0.00 74 975.7
20260510124729 47 270 7.0 10.0 0.00 0.00 0.00 71 975.9
20260510123831 48 305 6.0 11.0 0.00 0.00 0.00 71 975.9
20260510122929 47 276 8.0 12.0 0.00 0.00 0.00 71 975.9
20260510122029 48 301 7.0 11.0 0.00 0.00 0.00 69 976.0
20260510121129 49 210 6.0 9.0 0.00 0.00 0.00 71 976.1
20260510120228 47 270 5.0 10.0 0.00 0.00 0.00 72 976.3
20260510115328 47 263 9.0 14.0 0.00 0.00 0.00 70 976.4
20260510114429 48 186 10.0 14.0 0.00 0.00 0.00 66 976.5
20260510113529 49 252 10.0 15.0 0.00 0.00 0.00 59 976.6
20260510112629 50 241 9.0 15.0 0.00 0.00 0.00 56 976.3
20260510111729 50 206 12.0 17.0 0.00 0.00 0.00 54 976.4
20260510110829 50 344 9.0 17.0 0.00 0.00 0.00 53 976.4
20260510105029 51 289 10.0 15.0 0.00 0.00 0.00 55 976.5
20260510103229 52 261 11.0 15.0 0.00 0.00 0.00 52 976.6
20260510102329 51 274 12.0 17.0 0.00 0.00 0.00 54 976.7
20260510101429 53 298 10.0 14.0 0.00 0.00 0.00 50 976.7
20260510100529 54 275 11.0 12.0 0.00 0.00 0.00 46 976.6
20260510095629 55 292 8.0 13.0 0.00 0.00 0.00 44 976.6
20260510094729 55 258 8.0 13.0 0.00 0.00 0.00 44 976.8
20260510093829 55 234 9.0 14.0 0.00 0.00 0.00 42 976.8
20260510092929 55 224 8.0 11.0 0.00 0.00 0.00 43 977.0
20260510092029 54 212 7.0 10.0 0.00 0.00 0.00 43 977.1
20260510091129 53 210 8.0 9.0 0.00 0.00 0.00 45 977.1
20260510085329 53 270 6.0 8.0 0.00 0.00 0.00 45 977.4
20260510084429 53 285 4.0 7.0 0.00 0.00 0.00 45 977.5
20260510082629 53 291 3.0 6.0 0.00 0.00 0.00 46 977.6
20260510075929 53 214 5.0 8.0 0.00 0.00 0.00 45 978.0
20260510075029 53 207 4.0 7.0 0.00 0.00 0.00 45 978.1
20260510074129 53 238 5.0 7.0 0.00 0.00 0.00 44 978.3
20260510073229 52 242 5.0 6.0 0.00 0.00 0.00 45 978.6
20260510071429 53 213 3.0 4.0 0.00 0.00 0.00 45 978.7
20260510070529 53 216 2.0 3.0 0.00 0.00 0.00 46 978.6
20260510065629 51 225 2.0 4.0 0.00 0.00 0.00 48 978.9
20260510064729 51 179 2.0 3.0 0.00 0.00 0.00 49 978.9
20260510063829 51 191 4.0 6.0 0.00 0.00 0.00 49 979.1
20260510062929 50 193 3.0 4.0 0.00 0.00 0.00 49 979.1
20260510062029 50 192 3.0 4.0 0.00 0.00 0.00 50 979.3
20260510061129 48 175 3.0 4.0 0.00 0.00 0.00 53 979.4
20260510060229 47 188 4.0 5.0 0.00 0.00 0.00 53 979.6
20260510055329 47 199 4.0 6.0 0.00 0.00 0.00 53 979.6
20260510054429 47 196 6.0 7.0 0.00 0.00 0.00 53 979.8
20260510053529 48 186 5.0 6.0 0.00 0.00 0.00 53 979.8
20260510052629 47 177 4.0 6.0 0.00 0.00 0.00 55 979.9
20260510051729 46 177 3.0 5.0 0.00 0.00 0.00 55 980.0
20260510045929 46 168 4.0 5.0 0.00 0.00 0.00 56 980.3
20260510045029 46 172 3.0 4.0 0.00 0.00 0.00 56 980.2
20260510043229 46 167 2.0 4.0 0.00 0.00 0.00 55 980.5
20260510040529 44 167 5.0 7.0 0.00 0.00 0.00 57 980.5
20260510035629 44 169 5.0 7.0 0.00 0.00 0.00 57 980.7
20260510034729 43 174 6.0 9.0 0.00 0.00 0.00 58 980.9
20260510033829 43 162 7.0 10.0 0.00 0.00 0.00 58 981.0
20260510032029 42 156 9.0 11.0 0.00 0.00 0.00 59 981.3
20260510030229 42 145 9.0 15.0 0.00 0.00 0.00 59 981.4
20260510025329 42 160 8.0 13.0 0.00 0.00 0.00 59 981.4
20260510024429 42 142 7.0 9.0 0.00 0.00 0.00 59 981.6
20260510023529 42 154 7.0 9.0 0.00 0.00 0.00 58 981.8
20260510021729 42 160 8.0 12.0 0.00 0.00 0.00 56 981.8
20260510020829 42 170 11.0 11.0 0.00 0.00 0.00 56 981.9
20260510015929 42 160 9.0 11.0 0.00 0.00 0.00 55 982.1
20260510014129 43 156 8.0 13.0 0.00 0.00 0.00 54 982.4
20260510013229 43 173 7.0 8.0 0.00 0.00 0.00 51 982.4
20260510012329 43 150 8.0 10.0 0.00 0.00 0.00 51 982.8
20260510011429 43 176 8.0 10.0 0.00 0.00 0.00 50 982.8
20260510010529 44 168 9.0 10.0 0.00 0.00 0.00 49 982.9
20260510005629 44 172 6.0 8.0 0.00 0.00 0.00 49 983.0
20260510004729 44 176 7.0 9.0 0.00 0.00 0.00 48 983.0
20260510003829 44 171 8.0 9.0 0.00 0.00 0.00 47 983.2
20260510002929 44 173 7.0 9.0 0.00 0.00 0.00 47 983.1
20260510002029 45 173 7.0 9.0 0.00 0.00 0.00 45 982.9
20260510001129 45 165 7.0 8.0 0.00 0.00 0.00 45 983.3
20260510000229 45 167 8.0 10.0 0.00 0.00 0.00 44 983.3
20260509234429 46 176 8.0 11.0 0.00 0.00 0.00 44 983.5
20260509233529 46 182 7.0 9.0 0.00 0.00 0.00 44 983.5
20260509232629 46 174 7.0 8.0 0.00 0.00 0.00 44 983.6
20260509230829 48 217 3.0 4.0 0.00 0.00 0.00 45 983.8
20260509225929 48 186 3.0 4.0 0.00 0.00 0.00 43 983.8
20260509224129 49 193 4.0 7.0 0.00 0.00 0.00 42 983.9
20260509223229 49 191 5.0 6.0 0.00 0.00 0.00 42 983.9
20260509222329 49 189 5.0 9.0 0.00 0.00 0.00 41 983.9
20260509221429 49 222 5.0 6.0 0.00 0.00 0.00 41 984.0
20260509220529 50 210 5.0 5.0 0.00 0.00 0.00 40 984.1
20260509215629 50 187 5.0 8.0 0.00 0.00 0.00 39 984.0
20260509214729 50 190 5.0 7.0 0.00 0.00 0.00 39 984.1
20260509213829 51 186 6.0 8.0 0.00 0.00 0.00 38 984.2
20260509212929 51 192 6.0 8.0 0.00 0.00 0.00 38 984.1
20260509212029 51 181 6.0 8.0 0.00 0.00 0.00 38 984.1
20260509211129 51 179 7.0 11.0 0.00 0.00 0.00 38 984.3
20260509210230 52 184 6.0 8.0 0.00 0.00 0.00 37 984.3
20260509205329 52 186 6.0 8.0 0.00 0.00 0.00 37 984.4
20260509204429 52 179 6.0 8.0 0.00 0.00 0.00 37 984.4
20260509203529 52 183 6.0 8.0 0.00 0.00 0.00 37 984.4
20260509201729 52 189 6.0 7.0 0.00 0.00 0.00 36 984.6
20260509200829 53 181 6.0 6.0 0.00 0.00 0.00 34 984.6
20260509195929 53 176 6.0 8.0 0.00 0.00 0.00 34 984.6
20260509195029 54 182 7.0 11.0 0.00 0.00 0.00 33 984.7
20260509194129 54 173 8.0 11.0 0.00 0.00 0.00 33 984.7
20260509193229 54 193 8.0 10.0 0.00 0.00 0.00 32 984.6
20260509192329 55 185 9.0 11.0 0.00 0.00 0.00 31 984.7
20260509191429 55 175 9.0 12.0 0.00 0.00 0.00 31 984.7
20260509190529 56 184 10.0 11.0 0.00 0.00 0.00 30 984.7
20260509184729 56 187 9.0 12.0 0.00 0.00 0.00 30 984.9
20260509183829 56 189 11.0 15.0 0.00 0.00 0.00 29 984.9
20260509182929 56 192 9.0 11.0 0.00 0.00 0.00 29 984.9
20260509182029 56 199 10.0 15.0 0.00 0.00 0.00 29 984.8
20260509181129 56 183 10.0 11.0 0.00 0.00 0.00 29 984.7
20260509180229 57 202 11.0 15.0 0.00 0.00 0.00 29 985.0
20260509175329 57 196 9.0 15.0 0.00 0.00 0.00 29 984.7
20260509174429 57 198 9.0 12.0 0.00 0.00 0.00 28 984.8
20260509172629 58 187 10.0 13.0 0.00 0.00 0.00 28 984.6
20260509170829 59 202 10.0 11.0 0.00 0.00 0.00 28 984.8
20260509165929 59 213 9.0 14.0 0.00 0.00 0.00 28 984.9